Terminal Aerodrome Forecast
Issued by NWS

Home | Current Version | Previous Version | Text Only | Print | Product List | Glossary On
Versions: 1 2 3 4 5 6 7 8 9 10 11 12 13 14 15
000
FTUS42 TJSJ 271100
TAFISX
TAF
TISX 271125Z 2712/2812 05005KT P6SM FEW026
     FM271300 09013KT P6SM FEW028
     FM272100 04005KT P6SM FEW030=

USA.gov is the U.S. government's official web portal to all federal, state and local government web resources and services.